[[{"header":{"parameterUnit":"m.s-1","parameterCategory":1,"la1":30.2991,"la2":30.254,"lo1":-89.0895,"lo2":-89.0444,"dy":0.0017,"dx":0.0017,"nx":28,"ny":28,"refTime":"2023-08-28T21:00:00:Z","depth":0,"parameterNumber":2,"parameterNumberName":"U-component_of_WINDS"},"data":[0,0,0,0,0,0,0,0,0,0,0,0,0,0,0,0,0,0,0,0,0,0,0,0,0,0,0,0,0,0,0,0,0,0,0,0,0,0,0,0,0,0,0,0,0,0,0,0,0,0,0,0,0,0,0,0,0,0,-4.7852,-4.7851,0,-4.7763,-4.7762,-4.7761,-4.7603,-4.76,-4.7597,-4.7594,-4.7506,-4.7506,-4.7507,0,0,0,0,0,0,0,0,0,0,0,0,0,-4.7889,-4.7889,-4.7853,-4.7851,-4.785,-4.7763,-4.7762,-4.7761,-4.7604,-4.76,-4.7597,-4.7593,-4.7506,-4.7506,-4.7507,0,0,0,0,0,0,0,0,0,0,0,0,0,-4.7844,-4.7889,-4.7853,-4.7761,-4.7752,-4.7764,-4.7762,-4.7761,-4.7605,-4.76,-4.7596,-4.7591,-4.7506,-4.7506,-4.7507,-4.7601,0,0,-4.7509,-4.7509,0,0,0,0,0,0,0,0,-4.7847,-4.7843,-4.7776,-4.7768,-4.7757,-4.769,-4.7742,-4.7707,-4.7606,-4.7661,-4.7594,-4.7589,-4.7571,-4.7566,-4.7559,-4.7597,-4.7593,-4.7509,-4.7509,-4.751,-4.751,0,0,0,0,0,0,0,-4.785,-4.7846,-4.7817,-4.7775,-4.7764,-4.7725,-4.7714,-4.7735,-4.7642,-4.7656,-4.7644,-4.7635,-4.7565,-4.7559,-4.7556,-4.7592,-4.7509,-4.751,-4.751,-4.751,-4.7702,-4.7706,0,0,0,0,0,0,-4.7866,-4.7849,-4.782,-4.7814,-4.7792,-4.7728,-4.7716,-4.7716,-4.7642,-4.7626,-4.7639,-4.7628,-4.756,-4.7555,-4.7552,-4.7657,-4.751,-4.751,-4.7511,-4.7697,-4.7703,-4.7708,0,0,0,0,0,0,-4.7867,-4.7865,-4.7824,-4.7829,-4.782,-4.7733,-4.7734,-4.7717,-4.771,-4.7629,-4.7612,-4.765,-4.7556,-4.7551,-4.759,-4.7651,-4.7511,-4.7511,-4.7691,-4.7699,-4.7705,-4.7867,0,0,0,0,0,0,-4.7869,-4.7866,-4.7901,-4.7831,-4.7821,-4.7863,-4.7738,-4.7718,-4.7712,-4.7696,-4.7635,-4.762,-4.7552,-4.759,-4.7591,-4.765,-4.7512,-4.7685,-4.7695,-4.7703,-4.7856,-4.7879,-4.7899,0,0,0,0,0,-4.7871,-4.7951,-4.7903,-4.7901,-4.7862,-4.7866,-4.7861,-4.778,-4.7717,-4.7751,-4.7699,-4.7622,-4.7645,-4.7595,-4.7595,-4.7655,-4.7681,-4.7692,-4.7702,-4.7847,-4.7875,-4.7898,0,0,0,0,0,0,-4.8032,-4.794,-4.7886,-4.7946,-4.7915,-4.784,-4.788,-4.7813,-4.78,-4.7787,-4.7688,-4.7675,-4.7727,-4.7694,-4.7641,-4.7742,-4.7651,-4.7662,-4.7761,-4.7787,-4.7808,-4.7814,-4.7512,0,0,0,0,0,-4.8074,-4.8085,-4.8004,-4.8065,-4.8052,-4.7969,-4.7968,-4.7909,-4.7873,-4.786,-4.781,-4.778,-4.7779,-4.7781,-4.7777,-4.7851,-4.7835,-4.7892,-4.7914,-4.7931,-4.7942,-4.7978,-4.8002,-4.7742,-4.7742,-4.7742,0,0,-4.8162,-4.8113,-4.8126,-4.8096,-4.8065,-4.8078,-4.7959,-4.7979,-4.7988,-4.7863,-4.7895,-4.7859,-4.7817,-4.7874,-4.7896,-4.7849,-4.801,-4.7945,-4.796,-4.796,-4.7991,-4.8016,-4.8038,-4.7749,-4.7748,-4.7747,0,0,-4.8328,-4.8293,-4.8338,-4.831,-4.8264,-4.8208,-4.822,-4.8155,-4.8125,-4.8156,-4.8062,-4.8072,-4.8074,-4.8048,-4.8035,-4.8192,-4.812,-4.8193,-4.8304,-4.8341,-4.8361,-4.8379,-4.8434,-4.8455,-4.8204,-4.8205,-4.8205,0,-4.8443,-4.8459,-4.8371,-4.8396,-4.8385,-4.8272,-4.8317,-4.8294,-4.825,-4.8246,-4.8193,-4.8192,-4.8157,-4.8205,-4.8243,-4.8237,-4.8246,-4.82,-4.8365,-4.8382,-4.8397,-4.8448,-4.8469,-4.8214,-4.8213,-4.8212,-4.8211,0,-4.8602,-4.8615,-4.8657,-4.8616,-4.8611,-4.8647,-4.8564,-4.8569,-4.851,-4.8461,-4.8494,-4.8447,-4.843,-4.8438,-4.8381,-4.8478,-4.845,-4.8383,-4.8289,-4.8432,-4.8479,-4.8498,-4.8227,-4.8223,-4.8221,-4.8218,0,0,-4.8867,-4.8776,-4.8794,-4.8773,-4.8714,-4.8723,-4.8753,-4.8736,-4.8742,-4.8716,-4.8739,-4.8743,-4.868,-4.8666,-4.8605,-4.8637,-4.8763,-4.8565,-4.8563,-4.8603,-4.8866,-4.8916,-4.894,-4.8715,-4.8718,-4.8721,-4.8869,0,-4.902,-4.9066,-4.8988,-4.9052,-4.9063,-4.8955,-4.8981,-4.8949,-4.8903,-4.8906,-4.8855,-4.8859,-4.8777,-4.8767,-4.8794,-4.8742,-4.8814,-4.873,-4.8735,-4.8737,-4.8748,-4.8965,-4.9018,-4.916,-4.8886,-4.8889,-4.8892,0,-4.9205,-4.9187,-4.9253,-4.9189,-4.919,-4.9216,-4.9193,-4.9197,-4.9158,-4.9122,-4.9106,-4.9034,-4.906,-4.897,-4.9003,-4.8948,-4.8946,-4.8921,-4.8924,-4.8921,-4.8823,-4.8967,-4.9203,-4.9225,-4.892,-4.8917,-4.8915,0,-4.9391,-4.9383,-4.9421,-4.9407,-4.9334,-4.9354,-4.9325,-4.9281,-4.9275,-4.9256,-4.9251,-4.9236,-4.9228,-4.9218,-4.9143,-4.9085,-4.9186,-4.909,-4.9157,-4.9159,-4.9183,-4.9182,-4.9421,-4.9183,-4.9182,-4.9182,-4.9182,0,-4.957,-4.9615,-4.9503,-4.9527,-4.9573,-4.9482,-4.9531,-4.9491,-4.9452,-4.9466,-4.9372,-4.9387,-4.9288,-4.9293,-4.9235,-4.9271,-4.9268,-4.924,-4.9224,-4.9248,-4.9252,-4.9245,-4.9233,-4.9188,-4.9186,-4.9185,-4.9184,0,-4.9786,-4.9713,-4.9747,-4.9675,-4.9658,-4.9695,-4.9633,-4.9652,-4.96,-4.9619,-4.9618,-4.9537,-4.9537,-4.9462,-4.9447,-4.9408,-4.9469,-4.9435,-4.9482,-4.9471,-4.9542,-4.9536,-4.9785,-4.9812,-4.9557,-4.956,-4.9562,0,-4.9904,-4.9936,-4.9867,-4.9869,-4.9844,-4.9849,-4.9842,-4.9755,-4.9752,-4.9709,-4.9733,-4.9725,-4.9714,-4.972,-4.966,-4.9647,-4.9612,-4.97,-4.961,-4.9633,-4.9613,-4.9612,-4.9614,-4.9719,-4.9723,-4.9725,-4.9727,0,-5.0123,-5.0085,-5.0079,-5.0061,-5.0056,-5.0038,-5.0013,-5.0021,-4.9924,-4.9926,-4.9925,-4.9916,-4.99,-4.9894,-4.987,-4.984,-4.9768,-4.9756,-4.9771,-4.9796,-4.9821,-4.9808,-4.9533,-4.9751,-4.9749,-4.9747,-4.9746,-4.9745,-5.0293,-5.0315,-5.027,-5.0267,-5.0239,-5.0218,-5.0232,-5.0182,-5.0179,-5.0158,-5.0107,-5.0114,-5.0073,-5.0033,-5.0009,-5.0013,-4.9969,-4.9991,-4.9996,-5.0003,-5.0016,-4.9821,-5.0009,-5.0008,-5.0007,-5.0007,-5.0006,0,-5.0506,-5.0471,-5.0469,-5.0438,-5.0435,-5.0367,-5.0336,-5.0339,-5.0346,-5.0313,-5.0304,-5.0302,-5.0295,-5.0234,-5.022,-5.0235,-5.0202,-5.0234,-5.0232,-5.0226,-5.0057,-5.0045,-5.0261,-5.0261,-5.0261,-5.0261,-5.0261,-5.0261,-5.0617,-5.0651,-5.0608,-5.0628,-5.0592,-5.0598,-5.0586,-5.0567,-5.054,-5.0542,-5.0535,-5.0495,-5.0451,-5.0433,-5.0423,-5.0405,-5.0405,-5.0448,-5.042,-5.0263,-5.0238,-5.0215,-5.0203,-5.0449,-5.0449,-5.0588,-5.059,-5.0591]},{"header":{"parameterUnit":"m.s-1","parameterCategory":1,"la1":30.2991,"la2":30.254,"lo1":-89.0895,"lo2":-89.0444,"dy":0.0017,"dx":0.0017,"nx":28,"ny":28,"refTime":"2023-08-28T21:00:00:Z","depth":0,"parameterNumber":3,"parameterNumberName":"V-component_of_WINDS"},"data":[0,0,0,0,0,0,0,0,0,0,0,0,0,0,0,0,0,0,0,0,0,0,0,0,0,0,0,0,0,0,0,0,0,0,0,0,0,0,0,0,0,0,0,0,0,0,0,0,0,0,0,0,0,0,0,0,0,0,-4.6781,-4.6782,0,-4.6851,-4.6851,-4.6852,-4.6735,-4.6731,-4.6727,-4.6724,-4.6795,-4.6801,-4.6806,0,0,0,0,0,0,0,0,0,0,0,0,0,-4.6546,-4.6551,-4.6781,-4.6782,-4.6782,-4.685,-4.6851,-4.6852,-4.6736,-4.6731,-4.6726,-4.6722,-4.6793,-4.68,-4.6807,0,0,0,0,0,0,0,0,0,0,0,0,0,-4.6635,-4.6553,-4.6781,-4.6733,-4.6729,-4.685,-4.6851,-4.6853,-4.6737,-4.6731,-4.6725,-4.672,-4.6791,-4.6799,-4.6808,-4.6979,0,0,-4.6833,-4.6837,0,0,0,0,0,0,0,0,-4.663,-4.6644,-4.6739,-4.6736,-4.6732,-4.6778,-4.6795,-4.6895,-4.6739,-4.6734,-4.6724,-4.6717,-4.6794,-4.6802,-4.6828,-4.6982,-4.6985,-4.6834,-4.6839,-4.6843,-4.6845,0,0,0,0,0,0,0,-4.6624,-4.664,-4.6808,-4.674,-4.6736,-4.6707,-4.6713,-4.6813,-4.6797,-4.6734,-4.6726,-4.6736,-4.6791,-4.6821,-4.6829,-4.6986,-4.6834,-4.6841,-4.6847,-4.685,-4.7282,-4.7289,0,0,0,0,0,0,-4.6624,-4.6636,-4.6806,-4.681,-4.6666,-4.6716,-4.6723,-4.6769,-4.6795,-4.6794,-4.6741,-4.673,-4.6809,-4.6819,-4.6831,-4.7032,-4.6843,-4.6851,-4.6855,-4.7276,-4.7284,-4.7291,0,0,0,0,0,0,-4.6619,-4.664,-4.6803,-4.6721,-4.6739,-4.6727,-4.678,-4.6774,-4.6803,-4.68,-4.6797,-4.6773,-4.6805,-4.6819,-4.6943,-4.7033,-4.6854,-4.6862,-4.7268,-4.7278,-4.7287,-4.7436,0,0,0,0,0,0,-4.6613,-4.6639,-4.6705,-4.6723,-4.6744,-4.6914,-4.6785,-4.678,-4.6818,-4.6804,-4.683,-4.6829,-4.6801,-4.6931,-4.6951,-4.7041,-4.6869,-4.726,-4.7273,-4.7284,-4.7423,-4.7449,-4.7472,0,0,0,0,0,-4.6605,-4.6744,-4.6708,-4.673,-4.6826,-4.692,-4.6932,-4.6897,-4.6825,-4.689,-4.6889,-4.6828,-4.702,-4.6944,-4.6966,-4.706,-4.7254,-4.7269,-4.7283,-4.7412,-4.7444,-4.7471,0,0,0,0,0,0,-4.6736,-4.6745,-4.6706,-4.6855,-4.6888,-4.69,-4.6981,-4.6933,-4.6986,-4.6971,-4.6926,-4.6933,-4.7066,-4.7075,-4.6991,-4.7226,-4.7125,-4.7145,-4.7215,-4.7246,-4.727,-4.7264,-4.6876,0,0,0,0,0,-4.6782,-4.6858,-4.6862,-4.6993,-4.7011,-4.6994,-4.7033,-4.7004,-4.7036,-4.7049,-4.7056,-4.7089,-4.7156,-4.7202,-4.7264,-4.7424,-4.7427,-4.7499,-4.7524,-4.7544,-4.7561,-4.7645,-4.7677,-4.7338,-4.7338,-4.7338,0,0,-4.6879,-4.6893,-4.6944,-4.702,-4.7041,-4.712,-4.7006,-4.7095,-4.7152,-4.7062,-4.7178,-4.7185,-4.7219,-4.7361,-4.7424,-4.7373,-4.7655,-4.7563,-4.7579,-4.7585,-4.7663,-4.7695,-4.7724,-4.7348,-4.7347,-4.7345,0,0,-4.7093,-4.7113,-4.7223,-4.7247,-4.7281,-4.7268,-4.7295,-4.7315,-4.7316,-4.7432,-4.7365,-4.7434,-4.7552,-4.7578,-4.7607,-4.7832,-4.7777,-4.7853,-4.7981,-4.8064,-4.809,-4.8114,-4.8192,-4.8221,-4.7871,-4.7871,-4.7871,0,-4.7209,-4.7325,-4.7286,-4.7379,-4.7414,-4.7336,-4.7447,-4.7472,-4.7525,-4.7551,-4.7494,-4.7639,-4.7656,-4.7802,-4.7857,-4.7884,-4.7912,-4.7849,-4.809,-4.8113,-4.8134,-4.8208,-4.8238,-4.788,-4.7879,-4.7878,-4.7877,0,-4.7464,-4.7546,-4.7631,-4.7683,-4.7728,-4.783,-4.7806,-4.7856,-4.7823,-4.7817,-4.7935,-4.7953,-4.8017,-4.805,-4.8019,-4.8192,-4.8159,-4.8097,-4.7994,-4.8176,-4.8245,-4.8273,-4.7893,-4.7889,-4.7887,-4.7885,0,0,-4.7762,-4.7792,-4.7824,-4.7846,-4.7878,-4.794,-4.8039,-4.8101,-4.8144,-4.8183,-4.8263,-4.8365,-4.8307,-4.834,-4.8311,-4.8383,-4.8558,-4.8311,-4.8311,-4.8355,-4.8748,-4.8794,-4.8828,-4.8523,-4.8528,-4.8533,-4.8745,0,-4.7975,-4.8144,-4.8111,-4.8276,-4.835,-4.8277,-4.8362,-4.8391,-4.8388,-4.845,-4.8446,-4.8518,-4.8437,-4.8456,-4.8524,-4.8523,-4.8636,-4.8507,-4.8596,-4.86,-4.8588,-4.8864,-4.8913,-4.9112,-4.8772,-4.8776,-4.878,0,-4.8245,-4.8294,-4.8466,-4.8485,-4.8515,-4.8592,-4.8646,-4.8707,-4.8738,-4.873,-4.8767,-4.8724,-4.8821,-4.8718,-4.885,-4.8763,-4.8797,-4.8802,-4.8809,-4.8815,-4.87,-4.8875,-4.9175,-4.9204,-4.8822,-4.8819,-4.8816,0,-4.8443,-4.8553,-4.8669,-4.8691,-4.8716,-4.8772,-4.8785,-4.881,-4.8849,-4.8897,-4.8921,-4.898,-4.9011,-4.9057,-4.9031,-4.8959,-4.9168,-4.9063,-4.9163,-4.9164,-4.9209,-4.9206,-4.9516,-4.9235,-4.9234,-4.9233,-4.9233,0,-4.8683,-4.8791,-4.8758,-4.883,-4.8948,-4.891,-4.9028,-4.9032,-4.9055,-4.9126,-4.9067,-4.9135,-4.9097,-4.9162,-4.9142,-4.9254,-4.9269,-4.9265,-4.9258,-4.9269,-4.9269,-4.929,-4.9275,-4.9241,-4.924,-4.9238,-4.9237,0,-4.8924,-4.8907,-4.9028,-4.9043,-4.9049,-4.9135,-4.9147,-4.9214,-4.9206,-4.9296,-4.9315,-4.9303,-4.9376,-4.9355,-4.9434,-4.942,-4.9561,-4.9538,-4.9551,-4.9544,-4.9645,-4.9635,-4.9978,-5.002,-4.9713,-4.9716,-4.9718,0,-4.9077,-4.9158,-4.9181,-4.9224,-4.9241,-4.9312,-4.9351,-4.9317,-4.9361,-4.9402,-4.9463,-4.9531,-4.9583,-4.9703,-4.9701,-4.9761,-4.9737,-4.9853,-4.9746,-4.9754,-4.9737,-4.9732,-4.9739,-4.9874,-4.9878,-4.9881,-4.9883,0,-4.935,-4.9337,-4.9396,-4.9453,-4.9502,-4.9545,-4.9583,-4.9621,-4.959,-4.9642,-4.9715,-4.9756,-4.9837,-4.9904,-4.9959,-4.9972,-4.9922,-4.9917,-4.9943,-4.9954,-4.9958,-4.9956,-4.9607,-4.9909,-4.9906,-4.9904,-4.9903,-4.9902,-4.955,-4.9618,-4.9645,-4.9713,-4.9737,-4.9774,-4.9836,-4.9836,-4.9897,-4.996,-4.9936,-5.0021,-5.0049,-5.0117,-5.0137,-5.0202,-5.0158,-5.0196,-5.0205,-5.0215,-5.0227,-4.9949,-5.0212,-5.0211,-5.0211,-5.021,-5.021,0,-4.9818,-4.9832,-4.9895,-4.9949,-5.0002,-4.9952,-4.9991,-5.0038,-5.0113,-5.0144,-5.0196,-5.028,-5.0346,-5.0349,-5.041,-5.0461,-5.044,-5.0478,-5.0473,-5.0477,-5.0264,-5.0234,-5.0494,-5.0494,-5.0494,-5.0494,-5.0494,-5.0494,-4.9964,-5.0076,-5.0067,-5.019,-5.0203,-5.0285,-5.0311,-5.0344,-5.0368,-5.0465,-5.0519,-5.052,-5.054,-5.0601,-5.0659,-5.0658,-5.0682,-5.0729,-5.072,-5.052,-5.0492,-5.0465,-5.0437,-5.0735,-5.0735,-5.0927,-5.0928,-5.093]}]]